Wind_Speed
21 21 21 21 22 22 22 21 20 20 19 19 20 20 21 22 24 25 27 29 31 34 36 38 40 41 42 42 42 42 42 41 41 40 41 43 45 47 48 48 48 47 45 45 45 45 46 45 43 41 39 36 33 30 29 29 29 26 21 15 13 18 20 20 17 12 13 12 9 10 10 8 6 5 2 2 4 5 9 14 18 21 22 22 22 21 22 23
23 23 23 23 23 24 24 24 23 23 22 21 21 21 21 22 23 25 27 28 30 32 35 37 39 41 42 43 43 43 43 43 42 41 42 43 45 48 50 50 49 48 47 47 46 47 47 47 46 44 41 38 35 33 31 31 31 28 25 20 17 20 22 23 20 13 15 15 11 11 8 7 7 7 2 4 5 5 8 12 16 20 22 21 20 20 21 23
26 26 26 25 25 25 26 26 26 26 25 24 23 23 23 23 23 24 26 28 30 32 34 36 39 41 43 44 44 44 45 44 43 43 42 44 46 48 51 51 51 50 49 48 48 48 49 50 48 46 44 41 37 35 33 32 32 30 28 25 21 22 23 24 21 15 14 15 13 10 9 9 10 9 3 5 5 4 7 12 15 18 21 19 18 19 20 22
29 29 29 28 28 28 28 28 28 29 29 28 26 26 25 25 25 25 26 28 30 32 34 36 38 40 42 44 45 45 46 46 45 44 44 45 46 48 51 53 53 52 51 50 50 50 50 51 50 48 46 43 40 37 36 34 34 32 30 27 24 22 23 23 21 17 15 15 13 12 11 12 10 6 3 5 6 5 8 11 14 17 20 18 16 18 19 21
33 32 32 32 31 31 31 31 31 31 31 31 30 29 28 28 27 26 26 27 29 31 33 36 38 40 42 44 45 46 47 47 46 46 46 46 47 47 50 53 54 54 54 52 51 51 51 52 51 50 48 45 42 40 38 36 35 34 32 30 27 24 22 22 21 19 18 16 15 13 11 11 9 5 4 3 3 4 7 10 12 15 19 18 15 17 18 19
37 37 36 36 35 35 35 34 34 34 34 34 33 33 32 31 30 29 28 28 30 31 33 35 37 39 42 44 46 47 48 48 48 48 47 47 48 48 50 54 56 57 56 55 53 52 52 53 53 52 50 47 44 42 40 38 37 36 34 32 31 27 22 19 20 19 18 16 14 12 9 8 9 8 5 1 1 3 5 7 10 13 18 18 14 15 17 18
41 42 42 42 42 41 41 40 39 38 37 37 36 36 36 35 34 32 31 30 31 32 33 34 37 39 41 44 46 47 48 49 49 49 49 49 49 49 50 53 57 59 58 57 55 54 53 53 54 53 51 49 45 44 42 40 39 38 36 34 33 31 25 19 19 19 17 15 13 10 9 11 11 12 10 7 4 3 3 5 9 12 16 17 14 14 16 17
42 44 45 46 47 47 47 46 44 43 42 41 40 39 39 39 37 36 34 33 34 34 35 35 36 38 41 43 46 48 49 50 51 50 50 51 51 51 51 52 56 60 60 59 57 55 54 53 54 54 53 50 47 45 44 43 42 40 38 35 33 32 28 22 19 18 17 15 12 10 11 14 14 14 13 10 5 2 2 3 7 10 13 15 13 13 14 16
43 45 46 47 48 49 49 49 49 48 47 46 45 44 43 42 41 40 38 36 37 37 37 37 37 38 40 43 45 48 49 50 52 52 52 52 53 52 52 52 55 60 62 61 60 58 56 54 54 54 54 52 49 47 46 45 44 42 40 37 34 32 28 24 21 21 18 16 13 11 13 14 13 12 12 10 5 2 3 3 6 8 10 12 12 12 13 14
46 47 48 48 49 50 50 51 51 51 51 50 50 49 48 47 45 44 42 40 40 40 40 39 39 39 40 42 45 48 50 51 52 53 54 54 54 54 54 54 55 59 63 63 62 60 57 55 54 55 55 53 51 49 47 47 46 44 41 40 38 33 29 26 25 24 20 17 16 15 14 13 10 9 10 9 6 4 5 5 5 6 8 10 10 11 13 13
48 49 49 50 51 52 53 53 53 53 53 53 52 52 52 51 50 48 46 44 43 43 42 42 41 41 41 42 44 47 50 52 53 54 55 56 56 56 55 55 55 58 63 65 64 62 58 56 56 56 56 54 53 52 49 48 48 46 44 42 40 37 32 29 28 25 22 19 17 17 16 13 11 10 10 10 9 9 8 6 5 4 6 8 8 9 11 12
49 49 50 51 53 55 55 56 56 56 56 55 55 54 54 54 54 53 52 50 48 46 45 45 44 44 44 43 44 46 49 52 54 56 57 58 58 58 57 57 57 58 62 65 65 63 61 59 58 56 56 55 54 53 51 50 50 48 46 44 42 40 35 30 28 26 25 23 19 18 18 15 13 12 12 10 10 10 9 6 5 4 4 6 6 8 10 11
49 49 50 52 55 58 59 59 59 59 58 57 57 56 56 55 56 56 56 55 53 51 49 48 47 46 46 45 45 47 50 53 56 57 58 59 59 59 59 59 59 60 61 64 65 64 62 61 59 58 58 56 54 54 53 52 51 50 49 47 45 44 37 30 29 28 27 26 23 20 20 18 15 14 14 13 11 9 8 6 4 3 3 4 5 6 9 11
50 50 51 54 57 60 62 63 62 61 61 60 59 59 58 57 57 57 57 58 58 56 53 51 50 49 48 48 48 49 50 52 55 57 58 59 60 60 60 60 60 61 61 62 64 64 64 63 62 61 60 58 55 55 55 54 53 52 51 49 47 47 43 34 30 29 28 28 26 21 21 21 17 15 15 17 16 10 7 6 4 2 1 2 4 6 8 10
54 54 55 57 59 62 64 65 64 63 62 62 62 61 61 60 59 59 58 59 59 58 56 54 53 52 51 51 51 52 51 51 53 56 58 59 60 61 61 61 61 62 61 60 61 64 66 66 66 65 62 60 58 57 57 56 55 54 53 52 50 49 47 42 36 32 29 29 27 21 22 23 19 16 16 19 19 12 8 7 6 4 1 3 4 5 7 8
58 59 59 61 63 65 66 67 66 64 63 63 63 63 63 62 62 62 61 60 59 59 58 57 56 55 55 55 54 53 52 52 52 54 58 59 60 61 62 62 62 62 62 61 60 62 66 68 68 67 64 62 60 58 58 58 57 56 55 54 52 50 49 48 44 38 33 32 30 24 23 25 21 17 17 19 17 11 8 8 8 6 3 3 3 4 6 7
63 63 65 67 68 68 67 66 66 65 64 64 64 65 64 64 64 64 63 62 61 60 59 59 58 58 58 58 56 54 53 53 53 53 56 59 60 62 63 64 64 64 63 62 61 61 64 68 69 68 67 65 63 61 60 60 60 59 57 56 55 52 50 50 47 41 38 35 33 30 28 27 22 19 18 18 16 11 8 8 9 7 5 4 2 2 4 5
66 67 69 71 71 69 66 64 63 63 63 64 65 65 66 66 67 66 65 64 64 63 62 60 60 60 60 60 58 55 55 55 55 55 56 58 61 63 63 64 65 65 64 64 63 62 64 67 70 70 69 67 65 64 63 64 63 61 59 57 57 54 52 52 48 42 40 36 32 32 32 27 21 20 19 18 17 14 12 9 9 9 6 4 2 1 3 4
69 70 72 73 72 68 63 60 59 60 61 63 65 66 67 68 69 69 67 66 65 65 65 64 62 62 61 61 60 58 58 58 58 59 59 59 62 64 65 65 65 65 65 65 65 64 64 66 68 70 71 70 69 68 67 66 64 62 61 59 58 57 54 54 50 44 42 39 33 32 34 30 24 22 21 18 17 16 16 14 11 9 7 5 4 1 1 1
72 73 74 74 69 63 58 56 55 55 57 60 63 66 68 70 71 71 70 68 67 68 68 67 66 64 63 63 62 61 61 62 62 62 61 60 62 64 65 65 65 66 67 67 67 66 66 65 66 69 73 75 73 71 69 67 65 64 63 61 60 59 57 56 52 47 45 42 37 35 36 34 29 25 23 19 18 18 18 17 14 11 8 7 6 4 2 1
75 76 75 70 63 57 52 50 49 49 51 54 58 62 66 70 71 72 73 72 71 70 70 69 69 68 66 65 64 63 63 64 64 64 63 62 61 63 65 66 65 67 69 69 69 68 67 66 66 70 75 76 75 73 70 69 67 66 65 63 61 60 59 58 55 52 50 48 44 38 37 37 32 28 24 21 22 23 20 18 16 15 11 9 10 7 4 4
77 77 72 64 56 50 46 43 42 43 44 47 50 55 60 64 68 71 73 75 74 72 71 71 71 70 70 69 68 66 66 67 67 66 65 64 63 63 64 66 67 69 70 70 70 69 69 69 71 72 74 76 76 74 72 71 69 67 66 65 63 62 61 61 59 58 57 55 51 43 37 36 34 29 26 23 22 24 23 21 19 19 15 12 11 9 6 6
78 74 66 58 50 45 40 38 37 36 37 40 43 47 51 56 61 66 71 74 76 76 74 73 73 74 74 74 72 70 69 69 69 69 68 67 66 64 65 67 70 71 71 71 71 70 71 74 75 73 72 74 76 76 74 72 71 68 67 67 65 64 64 64 63 61 61 59 56 51 42 35 33 31 28 25 23 22 24 24 21 20 18 15 13 11 8 7
77 70 60 53 46 41 36 34 32 31 31 33 36 39 43 47 53 59 65 70 75 77 78 77 78 78 79 78 76 74 72 71 71 71 71 70 68 66 66 68 70 71 71 71 71 72 75 77 76 73 72 72 75 77 76 74 73 71 69 68 68 67 66 66 65 63 62 62 59 56 49 39 34 32 30 27 25 24 24 26 24 20 18 16 15 13 11 9
75 65 56 49 43 38 33 31 29 27 27 27 30 33 36 40 45 51 57 63 69 74 78 80 81 82 81 81 79 77 76 74 74 74 73 72 71 69 68 68 69 71 71 72 72 74 77 77 75 74 73 71 72 75 77 76 75 73 72 70 70 69 67 67 68 65 63 64 63 59 53 44 36 32 31 29 27 26 25 26 26 22 19 17 16 16 13 10
72 61 52 46 40 35 30 27 24 23 22 22 24 26 30 33 38 43 48 54 60 67 74 79 81 82 82 82 81 79 78 77 76 75 75 74 73 71 69 68 69 70 71 72 73 75 77 77 76 75 74 72 72 74 77 78 77 76 75 74 72 71 69 69 69 70 68 65 64 62 55 47 40 33 31 31 29 27 26 27 27 25 22 19 19 19 16 12
69 58 49 43 38 32 27 23 21 19 19 18 19 20 23 27 31 36 40 45 52 59 66 72 77 80 81 81 81 80 79 79 78 77 76 76 75 74 71 70 69 70 71 72 73 76 77 77 77 77 76 74 73 73 76 78 79 79 78 77 75 73 72 72 71 71 71 66 63 63 58 51 45 37 33 33 32 29 28 28 28 27 27 24 22 22 20 16
67 55 47 40 35 30 25 22 19 17 16 15 15 15 17 21 24 29 33 38 45 51 57 64 70 75 77 79 80 80 80 80 80 79 78 77 77 76 75 73 71 71 71 71 73 77 77 77 77 77 77 76 75 75 76 77 79 82 82 81 78 75 73 73 72 72 72 68 65 64 60 54 48 42 36 35 35 33 31 29 29 29 30 28 24 23 22 19
65 53 45 38 32 27 23 21 19 17 14 13 12 12 13 15 18 22 27 32 38 44 49 56 62 68 73 76 77 79 80 81 81 80 79 78 78 78 78 76 73 71 72 72 74 77 76 76 77 77 77 77 78 79 78 77 79 83 85 83 80 77 76 74 73 73 71 70 69 66 63 58 50 44 40 37 37 36 34 32 32 33 33 30 25 23 21 19
64 52 43 35 29 24 21 19 19 17 15 13 11 11 11 12 14 17 21 26 31 37 42 48 55 61 67 72 75 77 80 81 82 81 81 80 80 80 79 77 74 72 72 74 75 75 74 75 75 76 77 79 80 80 79 78 80 83 84 84 82 80 78 76 75 74 72 71 71 69 67 62 54 47 44 41 38 36 34 33 34 36 35 31 26 24 21 18
63 51 41 34 27 21 18 18 17 16 15 13 11 10 10 11 12 14 17 21 25 30 36 42 48 55 61 67 72 75 78 80 81 82 82 82 82 81 80 79 77 74 74 76 76 74 73 74 75 76 79 81 82 81 81 81 81 81 82 83 84 82 80 77 75 74 72 72 73 72 70 67 61 52 46 44 41 38 36 34 34 35 35 31 27 25 22 20
62 50 40 32 26 20 17 17 16 15 14 13 12 11 10 10 11 13 15 17 21 25 30 36 43 49 56 62 67 72 75 78 80 83 84 84 83 83 82 81 79 77 77 77 77 75 74 74 76 78 81 82 83 83 83 83 82 80 79 81 84 83 81 78 76 74 73 74 74 74 73 70 68 61 51 46 45 44 42 37 34 35 34 31 28 27 26 24
62 49 39 31 25 20 16 16 16 15 14 12 11 11 10 10 10 11 13 15 18 22 26 31 37 44 51 57 63 68 72 76 79 81 83 84 84 84 83 82 80 79 79 78 78 77 76 75 77 79 81 82 83 83 83 84 83 81 78 78 81 83 82 79 77 76 75 76 76 75 75 72 72 69 59 52 50 50 48 43 40 38 37 34 32 32 32 29
61 47 37 30 25 20 16 16 17 15 13 12 11 11 10 10 10 10 12 14 16 19 23 27 32 39 45 51 58 64 69 73 76 79 81 83 83 83 83 82 81 81 81 80 79 79 78 77 78 79 80 80 82 83 85 85 85 83 80 78 80 83 83 81 80 79 79 80 78 76 75 73 73 73 68 61 55 54 54 51 48 45 41 39 38 36 35 33
62 46 36 29 25 21 17 15 16 15 13 12 12 11 10 10 9 9 11 12 14 17 20 24 29 34 40 46 52 58 64 68 72 76 79 81 82 83 82 82 82 82 83 82 81 81 81 80 79 79 79 80 82 84 86 87 88 86 83 81 80 82 84 84 84 84 84 83 80 77 75 75 75 75 74 68 61 58 58 56 55 52 48 45 43 39 36 34
62 46 36 28 24 21 17 15 14 14 13 12 11 10 10 10 10 10 11 12 13 15 18 22 27 32 37 42 47 53 59 64 69 72 75 78 80 82 82 83 83 83 84 84 83 83 84 83 82 80 80 81 83 85 86 88 88 86 84 82 80 81 84 86 87 86 86 84 79 77 76 77 77 75 75 73 67 63 61 60 59 57 54 51 47 45 43 39
63 46 36 28 24 21 18 15 13 13 12 12 11 10 10 11 12 13 13 14 15 16 18 21 26 30 35 39 44 49 55 60 65 69 72 76 78 80 82 83 83 84 84 85 85 85 86 86 85 83 82 83 84 85 86 88 88 87 85 83 83 83 84 86 87 88 87 84 80 78 78 78 78 75 75 76 73 68 65 64 62 60 58 56 52 51 49 46
64 47 36 29 24 21 18 14 13 13 12 12 12 12 12 13 14 16 17 18 19 21 22 24 26 29 33 37 41 46 51 56 61 65 69 72 76 79 80 81 83 84 85 86 86 87 88 88 87 86 85 85 85 85 86 88 88 87 87 86 85 85 84 84 86 88 87 86 83 80 79 79 78 76 75 76 76 74 70 67 65 64 63 59 56 54 53 50
64 48 37 29 24 21 18 15 14 13 12 12 12 13 14 16 18 20 22 23 25 26 28 29 30 31 33 36 39 44 48 52 57 61 65 69 73 77 79 81 82 84 85 86 87 88 89 90 89 89 88 87 86 86 86 87 88 88 88 88 87 86 86 85 85 86 88 88 86 84 82 80 78 78 77 76 77 77 75 72 69 68 66 63 60 59 57 55
65 49 37 30 25 21 18 16 15 14 13 13 13 15 16 18 20 23 25 26 28 30 32 34 34 34 35 36 39 43 46 50 54 58 62 66 70 74 78 81 82 84 86 86 87 89 90 91 91 91 91 90 89 88 87 87 88 89 89 89 89 88 87 86 84 84 86 88 88 87 84 82 80 79 78 77 77 78 78 78 76 74 71 68 65 64 62 60
64 49 37 30 25 22 19 18 17 16 15 14 14 16 17 19 21 23 25 27 28 30 33 36 38 38 38 38 40 42 45 47 51 56 60 63 67 71 76 79 82 85 86 87 87 89 91 92 93 93 92 92 91 90 89 88 89 90 90 90 90 89 88 87 85 83 84 85 88 88 86 85 84 82 80 79 78 78 79 80 80 80 77 74 71 69 67 64
63 49 38 30 26 23 20 19 18 17 16 15 15 16 18 19 20 22 24 26 27 28 30 33 37 40 41 41 42 43 44 47 50 53 57 61 64 68 73 77 80 84 86 87 87 89 91 93 94 95 94 94 93 91 90 89 90 90 90 90 90 89 88 88 86 83 83 83 85 87 88 88 87 84 82 81 80 80 80 79 80 80 79 77 75 73 70 68
62 48 39 31 26 23 21 20 19 18 16 15 16 16 17 18 19 21 22 23 24 25 25 28 33 38 42 44 46 46 45 46 49 52 55 57 61 64 68 72 76 80 83 85 87 88 90 93 95 97 97 96 95 93 92 91 90 90 90 90 89 88 88 88 87 85 84 83 83 85 87 88 88 87 85 84 82 81 80 80 79 79 78 77 75 73 72 70
62 48 39 31 26 23 21 19 18 17 16 16 16 16 16 17 19 21 21 22 24 24 23 24 27 33 38 43 47 49 48 48 49 51 53 55 58 61 64 67 71 75 79 82 85 87 89 92 95 98 99 98 97 96 95 93 92 90 89 89 88 87 87 88 88 87 86 84 83 83 84 86 88 89 88 86 84 83 81 80 79 78 77 76 75 73 72 70
61 48 39 31 25 22 20 18 17 16 15 15 16 16 16 17 19 21 22 23 24 24 22 21 23 27 33 38 43 48 51 51 51 51 52 54 56 59 62 65 68 72 75 78 82 85 88 91 94 97 100 100 100 98 97 95 93 91 89 87 86 86 87 88 88 88 87 85 84 83 82 83 86 88 89 88 87 85 84 83 81 79 77 76 75 73 71 69
60 48 39 32 24 21 19 18 17 15 13 14 16 16 16 17 19 21 22 24 24 24 22 19 20 23 27 32 37 42 48 52 54 54 53 54 56 58 61 64 67 70 72 75 78 81 85 89 92 95 99 101 101 100 98 96 94 92 89 88 87 86 87 87 88 88 88 87 86 84 84 83 84 85 87 89 88 88 87 85 83 80 78 76 75 74 72 69
58 47 40 33 24 20 19 19 17 14 13 14 15 15 16 17 19 21 23 24 25 24 22 18 17 19 22 26 31 37 43 49 54 56 56 56 57 59 61 63 65 68 70 73 76 78 82 87 90 94 98 101 102 101 99 98 96 94 92 90 88 87 87 87 87 88 89 88 87 87 86 85 85 85 86 87 88 88 88 87 85 82 79 77 76 74 73 70
55 45 39 33 25 20 19 20 17 14 14 15 15 15 16 17 18 20 22 24 25 25 23 18 16 17 19 22 25 31 37 44 50 55 57 58 59 60 61 63 65 67 70 72 74 77 80 84 88 92 96 99 101 101 100 100 99 97 95 93 91 89 88 87 87 88 88 88 89 89 89 88 88 87 85 85 86 87 87 87 86 84 82 80 78 76 74 72
53 43 37 32 26 20 19 20 17 14 15 15 15 16 16 16 18 20 22 24 25 26 25 20 16 14 15 18 20 25 32 38 45 51 55 59 61 62 62 64 65 67 69 71 73 75 78 81 84 89 93 96 98 99 100 101 101 99 98 96 94 92 90 88 88 88 88 88 89 91 91 91 91 89 87 85 85 85 86 87 86 85 84 84 82 79 76 74
51 42 36 32 26 21 19 19 17 16 16 16 15 16 16 16 16 18 20 22 24 26 26 23 18 15 13 14 16 20 25 32 38 45 51 57 61 64 64 65 66 67 68 70 72 74 77 79 81 84 87 92 96 98 99 100 101 100 99 97 96 94 93 91 89 88 88 88 89 91 92 92 91 90 89 87 85 84 85 86 87 87 86 86 84 82 79 77
49 41 35 31 26 21 19 18 18 17 16 16 15 16 16 17 17 17 19 21 23 25 26 25 21 17 14 12 14 16 20 26 33 39 45 52 58 63 66 66 67 67 68 68 70 72 75 77 79 81 83 87 92 96 97 100 102 101 99 98 97 96 96 94 92 90 89 89 89 90 90 91 92 92 91 90 88 86 85 86 87 88 88 87 85 84 82 79
47 39 35 31 26 22 20 18 18 18 17 16 16 15 15 17 17 17 18 20 21 23 25 26 23 19 16 13 12 13 16 21 28 34 40 46 53 60 65 68 68 68 68 68 68 70 73 75 77 79 80 83 87 91 94 98 101 101 101 100 99 99 98 97 95 93 91 89 89 88 89 91 92 92 93 93 92 90 89 88 88 88 88 87 86 85 84 82
Wind_Direction
284 284 285 286 287 286 284 280 277 274 273 272 271 268 264 261 256 250 244 239 237 237 235 232 231 230 229 226 225 224 223 222 220 218 218 218 217 214 213 212 212 213 212 210 209 207 206 206 205 206 207 208 207 204 202 197 196 196 193 183 187 203 188 177 191 193 190 203 212 220 231 238 252 262 269 16 34 31 21 30 33 26 25 24 27 32 33 37
282 282 282 283 285 285 284 282 279 274 270 267 266 265 265 262 259 255 249 242 237 236 236 234 232 230 229 228 225 224 223 222 220 218 218 218 217 215 213 212 212 213 212 211 210 208 207 207 207 207 208 210 208 206 203 200 198 199 198 192 191 202 195 190 198 191 186 200 211 222 241 259 256 248 239 57 47 27 18 28 29 22 20 20 23 28 30 35
282 281 281 281 282 283 284 283 281 278 273 268 264 262 261 260 259 257 253 248 241 236 234 234 233 231 230 229 226 225 224 223 220 218 218 219 218 216 214 212 212 214 214 212 211 209 207 207 207 207 209 210 209 207 205 202 200 200 199 199 199 200 199 199 199 193 192 197 202 220 241 246 250 246 215 86 75 46 28 26 24 20 18 15 20 26 28 34
283 282 281 280 280 281 281 281 281 280 276 272 267 263 259 257 256 256 255 252 247 241 236 233 233 233 231 229 228 226 224 223 221 219 218 219 219 217 215 213 212 214 215 214 212 210 208 207 208 208 209 211 210 208 207 205 202 202 201 201 205 203 204 202 195 193 194 197 205 221 236 243 254 244 169 102 99 65 29 23 22 22 18 13 18 25 27 31
285 284 283 282 281 280 279 279 279 278 278 275 271 266 262 257 253 251 253 253 251 246 240 235 232 232 232 230 228 227 225 223 222 220 218 218 220 217 215 214 212 213 215 215 213 211 209 208 209 209 210 211 211 209 208 207 204 204 204 204 207 210 212 205 193 193 196 203 211 213 226 246 260 232 152 89 88 45 11 14 24 25 19 13 16 23 27 29
287 286 285 284 283 282 280 278 276 275 275 275 273 269 265 261 256 251 248 250 251 249 245 239 234 231 232 231 229 227 226 224 222 221 219 218 219 219 216 214 213 213 214 215 215 212 210 209 209 209 210 212 211 209 208 208 207 206 206 207 210 212 215 207 195 193 197 207 212 209 217 236 248 237 205 189 283 332 345 9 26 25 20 15 14 22 26 27
290 289 288 287 285 284 282 280 277 274 272 272 271 270 268 264 259 254 249 248 249 249 246 243 239 234 231 231 230 228 227 225 223 221 220 218 218 219 217 215 214 214 214 215 215 213 211 210 210 210 210 211 211 210 209 209 208 207 207 210 214 215 214 209 202 199 201 207 211 209 222 228 223 219 207 202 237 279 318 8 24 21 20 17 12 19 24 25
293 291 289 288 287 285 283 281 278 275 272 269 268 268 267 265 262 257 253 249 248 247 246 244 242 238 233 231 230 229 227 226 224 222 220 219 218 218 218 216 215 214 215 215 215 214 213 211 211 211 211 211 211 210 208 208 209 207 207 210 215 219 216 212 212 213 210 210 213 213 226 228 207 199 201 199 213 262 295 353 13 13 17 16 11 16 20 24
298 296 293 291 288 286 284 281 278 275 272 269 266 265 264 264 262 259 255 252 250 248 246 244 243 240 237 232 230 230 228 226 225 223 221 220 219 219 218 217 216 215 216 216 216 215 213 212 211 211 212 212 211 210 208 208 209 208 206 208 212 217 218 215 221 223 217 213 212 210 219 221 202 194 204 200 197 246 264 304 350 1 12 16 13 15 17 21
300 298 296 293 291 288 285 282 279 276 272 269 265 263 262 261 260 259 256 253 251 249 246 244 243 241 239 236 232 229 228 227 225 224 222 220 219 219 218 217 217 215 216 216 216 216 214 212 212 212 212 212 212 210 209 208 209 208 206 205 207 212 215 214 219 221 216 215 215 214 217 217 209 199 202 197 184 206 243 271 311 345 3 14 17 16 15 17
299 297 295 293 291 288 286 283 280 277 274 270 267 263 260 259 258 257 255 253 251 249 247 245 243 242 241 238 234 231 229 228 226 224 223 221 219 219 218 217 217 217 216 216 216 216 215 213 213 213 212 212 213 212 210 209 209 208 206 205 205 208 214 215 217 216 211 215 219 222 220 215 220 215 202 194 187 199 220 250 283 319 351 11 23 19 14 14
298 297 295 294 292 289 286 283 280 277 274 271 268 265 261 258 256 255 254 252 250 248 247 245 243 242 241 239 236 233 230 228 226 224 223 222 220 219 219 217 217 217 217 216 216 216 215 215 214 214 214 213 213 212 211 210 209 208 206 206 205 206 212 217 218 215 211 213 215 218 219 212 217 216 205 201 196 202 209 226 267 288 337 7 30 25 16 13
297 296 296 295 294 290 286 283 279 276 274 271 268 265 262 259 256 254 252 251 250 247 246 245 243 241 241 241 239 235 232 228 226 224 223 222 221 219 219 218 218 218 217 216 216 216 216 216 215 214 215 214 212 212 212 211 210 208 207 207 207 205 206 211 216 214 210 211 211 212 214 212 216 213 206 210 205 197 199 212 243 264 326 11 40 29 19 15
295 294 294 294 294 292 287 283 280 276 273 270 267 264 262 259 257 254 251 250 248 247 245 243 243 241 240 240 239 237 234 230 227 225 224 223 222 221 219 219 219 218 218 217 216 216 216 216 216 215 215 214 212 212 213 214 212 209 207 207 207 205 202 206 212 211 207 207 209 211 212 213 218 218 214 218 218 206 196 204 202 211 321 43 58 33 22 19
295 293 293 293 293 291 288 284 280 277 273 270 266 263 260 258 256 254 251 249 247 246 244 242 241 241 240 238 238 238 236 233 230 227 225 224 223 222 220 219 220 220 219 218 216 216 216 216 216 216 215 214 213 212 213 215 213 210 208 207 208 206 204 206 210 209 207 205 205 208 216 219 214 213 218 222 226 216 196 189 179 183 190 85 70 36 26 22
297 295 295 296 295 292 288 284 280 277 273 268 265 262 259 257 255 253 250 248 246 245 243 241 240 239 238 237 237 238 238 236 232 229 226 224 223 223 222 220 219 220 220 218 217 217 217 216 217 216 214 214 214 213 213 214 214 211 209 207 208 207 205 208 211 211 210 207 205 203 214 222 212 209 221 223 224 213 195 190 178 183 179 116 75 36 31 27
301 298 299 300 299 295 290 284 279 275 271 267 263 260 258 256 254 252 249 247 246 244 242 240 239 237 237 236 235 236 237 237 235 232 228 225 223 223 222 221 219 219 220 219 218 218 218 217 217 217 216 215 214 213 213 214 215 213 210 208 207 207 206 208 210 209 209 208 207 207 213 220 215 216 224 222 218 202 191 202 189 189 191 154 105 33 38 38
305 303 302 303 302 298 292 285 278 273 268 264 261 258 255 253 252 250 248 246 244 242 241 240 238 237 236 235 234 234 235 236 236 234 230 226 223 222 222 222 220 219 219 219 219 218 218 218 217 217 217 216 215 214 213 213 214 213 211 209 207 207 206 208 209 206 206 205 206 211 216 218 216 220 223 218 217 201 190 203 198 194 195 179 162 36 38 53
309 307 306 306 305 300 293 286 278 271 265 261 257 255 252 250 249 248 247 245 242 240 239 238 237 236 235 233 232 231 231 233 234 233 231 227 223 221 221 221 220 219 218 219 219 219 219 218 217 217 218 217 216 214 214 214 214 214 214 211 208 208 206 208 209 206 205 206 206 213 219 217 215 219 222 218 218 209 196 198 201 197 194 197 201 221 350 55
314 312 312 311 308 302 294 286 278 270 264 258 254 252 249 247 246 244 243 242 240 238 237 236 236 235 234 232 230 229 229 230 232 232 231 228 225 221 220 220 220 219 218 218 219 219 219 218 217 217 217 218 217 215 215 214 214 214 214 212 209 208 206 207 209 206 206 209 208 213 217 216 213 216 221 221 218 214 206 201 204 209 204 214 226 232 259 258
319 318 317 314 309 303 295 287 279 271 264 258 253 249 246 244 242 240 239 238 237 235 234 233 233 233 232 231 230 229 229 229 230 231 232 230 227 224 220 219 219 219 218 217 217 218 219 219 218 218 217 217 217 217 216 215 215 214 214 214 211 208 206 207 209 208 209 211 209 208 212 212 211 213 220 224 217 212 213 210 211 218 213 214 230 235 243 248
323 323 321 317 311 305 298 290 282 273 266 259 254 249 245 242 240 238 236 234 234 233 232 231 231 231 230 230 229 229 228 227 227 228 230 230 228 225 222 219 218 218 218 217 216 216 218 218 219 219 217 217 217 217 217 216 215 215 214 214 213 210 207 207 209 210 212 214 212 207 207 209 210 213 221 225 219 212 215 216 218 224 217 207 218 226 232 241
328 326 323 319 314 309 303 295 286 277 269 262 255 250 246 242 238 236 233 232 231 230 229 229 228 228 228 228 228 228 228 227 226 226 227 228 228 226 223 220 218 217 217 217 216 216 216 217 218 219 217 217 217 217 217 217 216 215 215 215 213 212 209 207 208 211 213 216 216 213 211 211 211 214 218 220 219 217 218 220 221 228 224 212 211 214 222 230
332 330 326 322 319 314 309 301 292 283 273 265 257 252 246 242 238 235 232 230 229 228 227 227 226 226 226 227 227 227 227 226 225 224 225 227 227 226 224 222 219 217 217 217 216 216 216 217 219 219 217 217 217 217 218 218 218 217 216 215 214 213 211 209 208 210 213 215 218 218 216 214 211 213 213 214 217 220 223 223 221 223 223 217 213 212 216 220
335 333 329 326 322 319 313 305 298 289 279 269 260 253 247 242 238 235 232 230 228 227 226 225 225 225 226 226 227 226 226 224 223 222 223 224 225 226 225 223 221 218 216 216 216 217 217 218 219 219 218 217 217 217 218 218 218 218 217 216 215 214 212 211 210 211 212 214 217 219 217 214 212 211 211 212 215 220 224 224 222 220 219 218 216 213 214 215
338 335 332 328 325 321 316 309 302 295 286 275 264 255 248 242 238 235 232 230 228 226 225 225 225 225 226 226 227 226 225 223 222 221 221 222 223 225 225 224 223 220 217 216 217 218 218 217 218 219 218 218 217 217 217 217 218 218 218 217 215 214 213 212 212 212 212 213 215 217 215 214 212 209 211 211 212 218 221 222 224 223 222 223 221 218 216 219
341 337 334 330 326 322 318 313 309 303 295 285 272 260 251 243 238 234 231 229 227 225 225 224 224 224 224 225 225 225 223 222 221 220 220 220 221 223 224 224 223 222 219 217 217 219 218 217 217 218 218 218 217 218 218 217 217 218 218 218 216 214 214 213 213 214 213 211 214 216 214 213 213 211 213 212 211 214 218 221 224 224 225 227 225 223 223 228
342 339 336 331 326 323 320 318 316 311 304 295 283 268 255 246 239 234 231 228 226 224 223 223 223 223 222 223 223 222 221 220 219 219 219 219 219 221 222 223 222 222 220 218 219 219 218 217 217 218 218 218 217 218 218 217 217 218 218 218 217 215 214 215 214 215 214 211 213 216 214 213 214 213 214 214 212 212 215 220 222 222 224 225 224 224 228 233
344 340 337 333 327 323 322 322 320 317 312 305 294 279 263 250 242 235 230 227 225 223 222 222 221 221 221 220 220 220 219 218 218 217 218 218 218 219 220 222 222 222 220 220 220 219 218 218 218 218 218 218 218 218 218 217 217 218 218 218 218 216 215 215 215 216 215 213 214 216 215 213 212 211 211 212 214 213 214 218 219 219 218 220 221 221 225 228
345 341 338 334 327 322 322 322 320 320 316 311 302 287 271 256 245 237 231 227 225 223 221 221 220 220 220 219 218 218 218 217 216 216 217 217 217 218 219 221 221 222 221 221 221 219 217 218 218 218 218 218 219 219 218 218 219 218 218 218 218 218 216 215 216 216 215 215 216 216 216 214 211 209 208 210 213 213 214 216 216 216 216 218 221 219 217 215
345 342 339 334 328 322 323 323 321 320 317 311 303 288 274 260 249 239 232 227 224 222 220 219 219 219 219 219 218 217 217 216 216 216 216 216 216 216 217 219 219 220 220 221 222 220 217 218 218 218 218 218 219 219 219 219 220 219 218 219 219 219 218 217 216 217 217 216 216 216 216 215 213 210 208 209 212 212 212 213 213 214 216 218 221 219 211 209
346 342 339 334 328 324 325 326 323 320 316 310 301 289 275 261 250 242 235 229 224 221 219 218 218 218 218 218 218 217 217 216 216 215 216 216 216 216 216 216 217 218 219 220 221 220 218 217 218 218 218 218 219 219 220 220 221 220 219 219 220 220 220 219 218 218 218 218 218 217 216 216 215 213 210 210 213 213 211 209 207 210 212 213 214 214 209 209
346 342 339 333 328 323 323 327 326 320 314 308 300 290 278 264 254 245 238 232 225 222 219 218 218 218 218 218 218 217 217 216 216 216 216 216 216 216 216 216 216 217 218 219 220 221 219 218 218 219 219 219 219 220 221 221 221 220 218 219 220 221 221 220 219 218 219 220 220 218 217 217 217 215 213 212 213 214 213 209 206 207 210 211 212 214 215 216
347 342 338 331 325 321 320 324 326 320 311 307 302 291 282 270 260 251 244 236 229 223 220 218 219 219 219 219 219 218 217 217 217 217 217 217 217 217 217 216 216 217 218 219 219 220 220 220 219 219 219 220 220 220 221 221 221 220 218 217 218 220 221 221 220 219 219 220 219 219 217 218 218 216 214 212 211 213 215 212 210 210 212 214 214 216 220 221
348 342 337 329 321 317 315 317 321 317 306 299 295 289 285 279 267 257 250 243 235 228 223 221 220 221 220 220 220 219 219 218 218 218 217 217 217 217 217 217 216 217 217 218 218 219 220 221 221 220 219 220 220 221 221 222 222 220 218 217 217 218 219 220 220 220 220 219 219 219 218 218 218 217 215 213 211 213 215 216 215 216 216 217 216 217 221 222
348 342 336 328 318 313 309 308 310 309 298 285 282 280 284 285 279 270 260 251 244 236 230 226 224 223 222 221 221 220 220 219 218 218 218 218 217 217 217 218 217 217 217 217 218 218 219 220 221 221 220 220 220 221 221 222 222 222 219 218 217 218 219 219 220 221 222 221 219 219 220 220 220 218 217 215 213 213 214 217 219 220 222 221 220 222 225 226
349 342 336 328 317 310 305 299 298 298 288 275 270 270 273 278 278 275 269 263 256 247 241 235 230 227 225 224 223 222 221 220 219 219 218 218 217 217 218 218 218 217 217 217 217 218 218 219 220 221 221 221 221 221 221 222 222 222 221 219 218 218 219 219 220 221 223 222 220 220 221 223 222 219 218 217 215 214 214 216 220 222 225 225 224 226 228 229
349 343 336 328 318 308 301 293 288 288 280 269 264 262 263 265 265 265 265 263 261 256 251 245 238 233 229 227 225 224 223 222 221 220 219 219 218 217 218 218 218 217 217 217 217 217 217 218 219 220 221 222 222 221 221 222 222 222 221 220 219 219 219 219 220 221 222 223 221 220 221 223 223 221 220 219 218 216 215 216 219 223 227 227 227 229 230 231
349 344 336 328 319 308 298 288 282 281 277 269 265 262 261 260 259 258 258 258 258 258 256 253 247 240 234 230 228 226 225 223 222 221 220 220 219 218 218 218 218 218 217 217 216 216 217 218 219 220 221 222 222 222 222 222 222 222 221 220 220 219 219 219 219 220 222 222 222 221 221 222 224 223 222 221 220 219 218 218 221 224 227 227 228 231 232 234
348 344 337 328 319 308 297 285 279 277 275 268 262 260 260 260 259 258 258 257 257 258 258 257 255 249 242 235 231 229 227 225 224 223 221 221 220 219 218 218 218 218 218 217 217 216 216 217 218 220 221 222 222 223 222 222 222 222 221 220 220 220 219 219 219 220 222 222 222 222 221 222 223 224 224 223 223 222 222 222 223 225 227 228 229 232 234 235
347 343 338 329 319 310 298 284 277 274 272 268 263 262 262 263 263 264 264 263 260 259 259 258 256 254 249 242 236 231 228 226 225 223 222 221 221 220 220 219 219 219 218 218 217 217 216 217 217 219 220 221 222 223 223 222 222 222 221 221 220 220 220 220 219 219 221 223 223 223 222 222 223 223 224 224 225 224 224 225 226 227 228 229 231 234 236 237
347 343 338 329 319 312 300 287 280 276 276 275 271 269 269 270 271 273 272 271 267 263 260 257 253 251 249 246 241 235 229 227 226 224 223 222 222 222 221 221 220 220 219 219 218 218 217 217 217 218 220 221 222 223 224 223 223 223 222 221 221 220 220 220 219 219 221 223 224 224 223 223 223 223 224 225 226 226 226 227 227 228 228 229 231 234 236 238
347 342 337 330 321 313 303 292 286 280 278 278 275 273 275 279 283 284 284 283 281 275 267 259 251 247 244 243 241 238 233 228 226 225 224 223 222 222 222 222 222 221 221 220 220 219 218 217 217 217 219 220 221 222 223 224 224 224 223 222 221 221 221 221 220 219 220 221 223 224 224 224 225 224 224 225 226 227 228 228 228 229 229 230 231 233 235 237
346 342 338 332 324 315 305 294 286 279 278 281 282 282 285 290 295 297 298 299 298 293 282 269 256 246 240 237 236 236 235 231 227 225 223 222 222 222 221 221 222 222 222 221 221 220 219 219 218 218 218 219 220 221 222 224 225 225 224 223 222 221 221 222 221 221 220 221 222 224 225 225 225 225 225 225 225 227 228 229 230 230 230 230 230 231 233 234
345 342 338 333 326 317 306 293 283 277 278 285 288 289 292 298 304 308 310 312 312 308 297 280 265 252 242 236 233 233 233 231 228 226 223 222 221 221 221 220 220 221 221 221 221 221 220 219 219 219 219 219 220 221 222 223 224 225 226 225 223 222 222 222 222 221 221 221 222 224 225 225 226 226 226 226 226 227 228 229 229 230 230 230 230 230 231 232
344 341 337 334 328 318 305 291 282 278 280 287 291 295 300 306 313 317 320 321 322 319 309 293 276 261 249 240 233 230 229 229 228 225 223 221 220 221 221 221 220 220 220 220 221 221 220 220 220 220 219 219 220 220 221 223 224 225 226 226 225 223 223 222 222 222 221 221 222 223 225 225 226 226 227 227 227 227 228 229 229 229 230 231 231 230 230 231
342 339 336 333 328 318 304 293 286 283 284 290 295 301 307 312 318 323 325 327 329 327 319 306 290 273 257 245 237 230 227 226 226 224 222 220 220 220 220 221 221 220 220 220 220 220 221 220 220 220 220 220 220 220 221 222 223 224 225 226 226 225 224 223 222 222 222 221 221 222 224 225 226 226 226 227 228 228 229 229 230 230 231 231 231 231 230 230
341 337 334 331 327 318 304 294 290 287 286 292 299 304 309 315 320 325 328 331 334 334 328 318 306 288 268 252 242 234 228 224 224 223 221 220 219 219 219 220 221 220 220 219 219 219 220 221 220 220 220 220 220 220 220 221 222 223 224 224 225 226 225 224 223 222 222 221 221 222 223 225 225 225 225 226 227 228 229 230 230 231 231 232 232 232 232 231
339 336 332 329 325 317 305 297 293 287 286 292 300 304 308 314 320 326 331 333 337 340 337 329 318 304 284 263 248 238 232 227 224 222 221 220 219 219 219 219 220 221 220 220 219 219 220 221 221 221 221 220 220 220 221 222 222 223 223 224 225 226 226 225 225 223 222 222 222 222 222 224 225 226 225 226 227 228 229 230 230 231 231 231 232 232 232 232
338 335 331 327 323 315 305 298 291 284 283 288 296 302 307 313 319 325 330 334 338 343 344 338 327 318 303 279 258 243 235 230 226 223 221 220 219 220 220 220 220 220 221 220 220 220 221 221 221 221 221 221 221 220 220 222 223 223 224 224 225 226 226 226 226 225 224 223 223 223 223 224 225 226 226 226 226 227 228 229 230 230 230 231 231 232 232 232
336 333 330 327 322 314 305 296 288 281 281 285 291 300 308 313 318 324 329 334 339 344 347 345 335 326 318 300 275 253 238 232 229 225 222 220 219 219 220 221 221 221 221 221 221 221 221 222 221 221 221 222 222 221 220 221 222 223 223 224 225 226 226 227 227 226 225 224 224 224 224 225 225 226 226 226 226 226 227 228 229 229 229 230 230 231 231 231
334 331 329 326 320 313 305 295 286 280 280 283 287 296 306 311 315 322 327 331 338 343 346 347 343 331 323 315 295 270 248 235 230 227 224 221 219 219 220 220 222 222 222 221 221 222 222 223 223 222 221 221 222 222 221 221 222 222 222 223 225 226 227 227 227 227 227 226 226 225 226 226 225 225 227 227 227 226 226 227 228 228 229 229 230 230 231 231
Height
10903 10902 10901 10900 10900 10899 10899 10898 10898 10898 10897 10897 10896 10896 10896 10895 10896 10897 10898 10899 10901 10902 10903 10905 10907 10909 10911 10913 10915 10917 10919 10922 10925 10928 10931 10933 10936 10938 10942 10945 10948 10950 10953 10956 10960 10964 10967 10971 10974 10977 10980 10983 10986 10989 10991 10993 10995 10996 10997 10998 10998 10998 10999 11001 11002 11003 11004 11005 11006 11007 11007 11007 11008 11008 11008 11008 11008 11007 11006 11005 11004 11003 11001 11000 10999 10998 10996 10994
10900 10899 10899 10898 10897 10897 10896 10896 10895 10895 10895 10894 10894 10893 10893 10893 10893 10894 10894 10895 10897 10898 10900 10901 10903 10905 10907 10909 10912 10914 10916 10918 10922 10925 10927 10930 10932 10935 10938 10942 10945 10947 10950 10953 10957 10960 10964 10967 10970 10974 10977 10981 10984 10987 10989 10991 10993 10995 10996 10997 10996 10996 10998 10999 11001 11002 11003 11005 11006 11007 11007 11007 11008 11008 11008 11008 11008 11007 11006 11006 11005 11004 11003 11002 11001 10999 10998 10996
10898 10897 10896 10895 10895 10894 10893 10893 10892 10892 10891 10891 10891 10890 10890 10890 10890 10890 10891 10892 10893 10894 10896 10897 10899 10901 10903 10905 10908 10910 10912 10915 10918 10921 10924 10926 10928 10932 10935 10938 10942 10944 10947 10950 10953 10956 10960 10963 10967 10971 10975 10979 10982 10985 10988 10990 10992 10994 10995 10996 10995 10995 10996 10998 10999 11001 11003 11004 11005 11006 11007 11007 11008 11008 11007 11007 11007 11007 11007 11007 11006 11005 11004 11003 11002 11001 10999 10997
10895 10894 10893 10892 10891 10891 10890 10890 10889 10889 10888 10888 10888 10887 10887 10887 10887 10888 10888 10888 10889 10890 10892 10893 10895 10897 10899 10901 10903 10906 10908 10911 10914 10917 10920 10922 10924 10928 10932 10935 10938 10941 10943 10946 10949 10953 10957 10961 10965 10968 10972 10976 10980 10983 10986 10988 10990 10992 10993 10994 10994 10994 10995 10996 10998 11000 11002 11004 11005 11005 11006 11008 11008 11007 11007 11007 11007 11008 11008 11008 11007 11006 11005 11004 11003 11002 11000 10999
10892 10891 10890 10889 10888 10887 10887 10886 10886 10885 10885 10884 10884 10884 10883 10883 10884 10884 10884 10884 10885 10886 10887 10889 10891 10893 10894 10897 10899 10901 10904 10907 10910 10913 10916 10919 10921 10924 10928 10931 10935 10937 10939 10942 10946 10950 10954 10958 10961 10965 10969 10973 10977 10980 10984 10986 10988 10990 10992 10993 10993 10994 10995 10996 10998 11000 11002 11003 11004 11005 11006 11008 11008 11008 11008 11008 11008 11008 11009 11009 11008 11007 11006 11005 11004 11003 11001 11000
10888 10887 10886 10885 10884 10883 10883 10882 10882 10882 10881 10880 10880 10879 10879 10879 10879 10880 10881 10881 10881 10881 10883 10884 10886 10888 10890 10892 10894 10897 10899 10903 10906 10909 10912 10915 10917 10920 10924 10927 10930 10933 10935 10938 10942 10946 10951 10954 10958 10962 10966 10970 10974 10978 10981 10984 10986 10988 10990 10992 10992 10993 10995 10996 10998 11000 11001 11002 11004 11005 11006 11007 11008 11008 11009 11009 11009 11009 11010 11009 11008 11008 11007 11006 11005 11004 11002 11002
10884 10883 10882 10881 10880 10879 10878 10878 10878 10877 10877 10876 10875 10875 10874 10874 10875 10876 10877 10877 10876 10877 10878 10880 10881 10884 10885 10887 10889 10892 10895 10898 10901 10905 10908 10911 10913 10916 10919 10923 10926 10928 10931 10934 10938 10943 10947 10952 10955 10959 10963 10967 10971 10975 10978 10981 10984 10986 10988 10990 10991 10992 10994 10996 10998 11000 11000 11002 11003 11005 11006 11007 11007 11007 11008 11009 11009 11010 11010 11010 11009 11008 11008 11007 11006 11005 11004 11003
10879 10878 10877 10875 10874 10873 10872 10872 10872 10871 10871 10871 10870 10870 10869 10869 10870 10871 10872 10873 10872 10872 10873 10875 10876 10878 10880 10883 10884 10887 10890 10893 10896 10900 10904 10906 10908 10911 10915 10918 10921 10925 10927 10930 10934 10939 10944 10948 10952 10956 10961 10964 10967 10971 10975 10978 10981 10983 10986 10989 10990 10991 10994 10997 10998 10999 11000 11001 11003 11004 11005 11006 11006 11007 11007 11009 11009 11010 11010 11010 11009 11008 11008 11008 11007 11006 11005 11004
10874 10872 10871 10869 10868 10866 10865 10865 10864 10864 10864 10864 10864 10864 10864 10863 10864 10865 10867 10868 10868 10868 10868 10870 10871 10873 10875 10877 10879 10881 10884 10888 10891 10895 10898 10901 10904 10907 10911 10914 10917 10920 10923 10927 10930 10934 10939 10944 10949 10954 10957 10960 10964 10968 10972 10975 10977 10981 10985 10987 10988 10991 10995 10998 10998 10998 10999 11000 11002 11003 11003 11005 11006 11007 11008 11008 11009 11010 11010 11010 11009 11009 11009 11008 11007 11006 11005 11005
10868 10866 10864 10862 10861 10859 10858 10857 10856 10856 10856 10856 10856 10857 10857 10857 10857 10858 10860 10862 10862 10862 10863 10865 10866 10868 10869 10871 10874 10876 10879 10882 10885 10889 10892 10896 10899 10902 10905 10909 10913 10915 10918 10921 10925 10930 10936 10942 10947 10950 10953 10957 10960 10964 10969 10971 10974 10978 10983 10984 10986 10990 10993 10995 10995 10995 10997 10999 11000 11001 11002 11004 11006 11007 11007 11008 11009 11009 11010 11010 11010 11009 11009 11009 11008 11007 11006 11006
10862 10860 10857 10855 10853 10852 10851 10849 10848 10847 10847 10847 10847 10848 10849 10849 10849 10851 10852 10854 10855 10856 10858 10859 10861 10862 10864 10865 10868 10871 10873 10876 10880 10883 10886 10890 10894 10897 10901 10905 10908 10910 10913 10916 10921 10927 10934 10939 10942 10945 10949 10953 10956 10961 10966 10968 10970 10976 10980 10981 10983 10987 10989 10990 10991 10993 10996 10998 10999 11000 11001 11003 11004 11006 11007 11007 11008 11009 11009 11010 11010 11009 11009 11009 11008 11008 11007 11007
10855 10853 10850 10848 10846 10844 10843 10841 10840 10838 10838 10838 10838 10838 10839 10840 10841 10842 10844 10846 10847 10850 10852 10853 10855 10857 10858 10860 10862 10865 10867 10870 10873 10876 10879 10883 10888 10892 10895 10899 10902 10905 10908 10912 10918 10924 10930 10933 10937 10942 10946 10949 10953 10958 10962 10964 10967 10973 10977 10978 10981 10984 10986 10987 10989 10992 10994 10996 10998 10999 11000 11002 11003 11005 11006 11007 11007 11008 11009 11009 11009 11009 11010 11009 11009 11008 11008 11008
10848 10845 10842 10839 10837 10835 10833 10832 10830 10829 10828 10828 10828 10828 10829 10830 10831 10833 10835 10836 10838 10841 10844 10846 10849 10851 10853 10855 10857 10858 10860 10862 10866 10870 10873 10878 10882 10886 10890 10894 10898 10900 10904 10908 10914 10921 10925 10929 10934 10938 10940 10944 10950 10955 10958 10959 10963 10970 10973 10976 10979 10981 10984 10985 10986 10989 10992 10994 10996 10998 10999 11001 11002 11003 11005 11006 11006 11007 11008 11008 11009 11009 11009 11009 11009 11009 11009 11008
10839 10836 10832 10829 10827 10825 10823 10821 10819 10818 10818 10817 10817 10817 10818 10819 10821 10823 10825 10826 10829 10832 10836 10839 10842 10845 10848 10849 10850 10851 10853 10856 10861 10865 10869 10873 10877 10881 10886 10890 10893 10896 10900 10905 10911 10916 10920 10924 10928 10931 10935 10941 10947 10951 10954 10955 10960 10966 10970 10973 10976 10978 10982 10983 10983 10986 10989 10992 10994 10997 10998 10999 11000 11001 11004 11005 11005 11006 11007 11007 11008 11009 11009 11009 11009 11009 11009 11009
10830 10826 10822 10819 10816 10813 10811 10808 10807 10807 10806 10805 10805 10805 10806 10808 10810 10812 10813 10816 10819 10823 10827 10831 10835 10838 10840 10842 10842 10844 10847 10851 10855 10860 10864 10868 10872 10876 10881 10885 10889 10892 10896 10902 10907 10911 10914 10918 10921 10925 10931 10938 10942 10946 10950 10951 10955 10962 10965 10969 10972 10975 10979 10981 10981 10984 10987 10990 10993 10995 10996 10997 10998 11000 11002 11004 11004 11005 11006 11006 11007 11008 11008 11008 11009 11010 11009 11009
10820 10815 10811 10808 10804 10800 10797 10795 10793 10793 10793 10792 10792 10792 10794 10796 10798 10800 10802 10805 10809 10814 10818 10822 10827 10830 10832 10833 10836 10839 10843 10846 10850 10854 10858 10862 10866 10870 10874 10879 10884 10888 10893 10898 10902 10905 10909 10912 10915 10921 10927 10932 10936 10941 10945 10947 10950 10956 10961 10965 10968 10971 10976 10979 10980 10982 10985 10988 10991 10993 10994 10995 10997 10999 11001 11003 11003 11004 11005 11006 11007 11007 11007 11008 11009 11010 11010 11009
10809 10804 10800 10795 10790 10786 10782 10779 10777 10777 10777 10777 10777 10779 10781 10783 10785 10787 10791 10795 10799 10804 10808 10813 10817 10821 10823 10826 10830 10835 10838 10841 10844 10848 10852 10857 10860 10863 10867 10872 10878 10883 10888 10892 10896 10900 10902 10906 10911 10917 10922 10927 10932 10936 10940 10941 10943 10949 10956 10961 10964 10968 10972 10976 10978 10981 10984 10987 10990 10991 10992 10993 10996 10998 11000 11001 11002 11003 11004 11006 11006 11007 11007 11007 11008 11009 11010 11010
10798 10792 10787 10781 10775 10770 10765 10762 10760 10760 10761 10761 10762 10764 10767 10770 10772 10774 10779 10784 10789 10794 10798 10803 10808 10811 10814 10818 10823 10829 10832 10834 10837 10840 10844 10848 10852 10856 10861 10866 10872 10877 10882 10887 10891 10894 10896 10901 10907 10912 10918 10923 10927 10930 10932 10933 10937 10944 10951 10957 10962 10965 10969 10972 10975 10979 10983 10987 10989 10989 10990 10993 10995 10997 10998 11000 11000 11001 11003 11005 11006 11006 11007 11007 11008 11009 11010 11010
10786 10780 10773 10767 10759 10753 10748 10744 10743 10743 10744 10745 10746 10749 10752 10755 10758 10761 10767 10772 10778 10783 10787 10793 10798 10801 10805 10810 10815 10821 10823 10825 10828 10831 10834 10838 10843 10849 10853 10859 10865 10871 10876 10881 10884 10887 10891 10896 10902 10908 10912 10915 10919 10921 10924 10929 10935 10941 10947 10952 10958 10961 10965 10969 10973 10977 10981 10984 10986 10987 10988 10991 10993 10995 10996 10997 10999 11000 11002 11004 11005 11006 11006 11007 11008 11010 11010 11011
10774 10766 10759 10751 10743 10737 10732 10728 10727 10727 10727 10728 10730 10733 10736 10739 10743 10748 10754 10759 10765 10770 10776 10782 10787 10792 10796 10800 10806 10811 10814 10816 10820 10823 10827 10832 10837 10842 10847 10852 10858 10864 10868 10872 10877 10882 10886 10892 10897 10900 10901 10904 10910 10915 10921 10927 10932 10936 10941 10947 10953 10958 10962 10966 10970 10974 10978 10980 10982 10983 10985 10988 10990 10992 10993 10995 10998 10999 11001 11002 11004 11005 11006 11007 11008 11010 11011 11011
10762 10753 10745 10736 10728 10722 10718 10714 10712 10712 10712 10713 10715 10717 10720 10723 10728 10734 10740 10745 10751 10758 10764 10770 10776 10781 10786 10790 10796 10802 10805 10808 10812 10816 10821 10826 10831 10836 10841 10846 10851 10855 10859 10864 10871 10877 10881 10887 10888 10886 10889 10897 10905 10912 10918 10922 10927 10932 10936 10941 10948 10954 10959 10964 10968 10970 10972 10974 10975 10979 10982 10984 10987 10989 10991 10993 10995 10997 10999 11001 11003 11004 11005 11006 11008 11009 11011 11011
10750 10740 10731 10722 10716 10710 10706 10703 10700 10700 10699 10700 10701 10703 10705 10709 10715 10719 10725 10731 10738 10745 10752 10759 10766 10771 10775 10779 10784 10791 10795 10799 10803 10808 10813 10818 10823 10828 10833 10838 10842 10845 10850 10858 10864 10870 10875 10876 10874 10875 10884 10895 10901 10908 10913 10918 10923 10928 10932 10936 10943 10950 10955 10960 10963 10965 10966 10967 10970 10976 10979 10982 10985 10988 10989 10991 10994 10996 10998 11000 11002 11003 11004 11005 11006 11008 11009 11010
10739 10728 10719 10711 10705 10700 10696 10693 10691 10690 10689 10689 10690 10691 10694 10698 10702 10705 10711 10718 10725 10733 10740 10748 10754 10759 10762 10766 10772 10779 10786 10791 10796 10800 10805 10809 10815 10820 10825 10829 10832 10838 10845 10851 10857 10863 10865 10862 10864 10873 10883 10891 10896 10902 10908 10913 10918 10923 10927 10931 10938 10944 10949 10954 10957 10959 10961 10963 10968 10973 10977 10980 10983 10985 10986 10988 10991 10995 10997 10999 11001 11002 11003 11004 11005 11006 11008 11009
10728 10718 10709 10702 10697 10692 10689 10685 10683 10682 10681 10681 10682 10683 10685 10688 10690 10694 10699 10706 10713 10720 10728 10734 10740 10744 10749 10754 10761 10769 10777 10783 10788 10792 10797 10802 10807 10813 10817 10821 10825 10832 10838 10844 10850 10853 10852 10853 10862 10872 10879 10885 10891 10897 10904 10909 10913 10917 10921 10925 10931 10937 10943 10948 10951 10954 10957 10961 10965 10969 10974 10977 10978 10980 10983 10985 10989 10992 10994 10996 10999 11001 11002 11004 11004 11005 11007 11008
10720 10710 10702 10695 10690 10686 10683 10679 10677 10676 10675 10675 10675 10676 10678 10680 10682 10685 10690 10696 10702 10709 10715 10721 10726 10732 10738 10744 10751 10759 10766 10773 10778 10782 10788 10793 10799 10804 10810 10815 10819 10825 10831 10837 10842 10842 10843 10851 10861 10867 10873 10880 10886 10892 10898 10903 10907 10911 10915 10918 10924 10930 10937 10943 10945 10949 10952 10956 10960 10965 10970 10973 10975 10978 10981 10983 10986 10989 10991 10993 10996 10998 11000 11002 11003 11004 11005 11006
10712 10703 10696 10690 10685 10681 10678 10676 10673 10672 10671 10670 10670 10671 10672 10674 10676 10679 10683 10687 10693 10698 10703 10709 10716 10723 10730 10736 10742 10749 10757 10764 10769 10775 10780 10786 10792 10797 10803 10809 10813 10818 10824 10830 10834 10834 10838 10848 10856 10861 10868 10875 10880 10885 10890 10895 10901 10905 10908 10912 10918 10925 10931 10935 10939 10942 10944 10949 10955 10961 10966 10969 10973 10977 10978 10981 10984 10986 10988 10991 10993 10996 10998 11000 11002 11003 11004 11005
10706 10698 10692 10686 10681 10678 10675 10673 10671 10669 10668 10667 10667 10667 10668 10669 10671 10673 10677 10681 10685 10689 10694 10701 10707 10714 10721 10726 10733 10740 10748 10755 10762 10768 10772 10778 10784 10790 10796 10801 10805 10811 10817 10823 10827 10828 10834 10843 10849 10855 10862 10868 10874 10879 10882 10888 10894 10897 10900 10905 10911 10919 10924 10928 10933 10935 10939 10947 10953 10957 10962 10966 10970 10974 10976 10978 10982 10984 10986 10988 10990 10993 10996 10998 11000 11001 11002 11004
10701 10694 10688 10683 10678 10675 10672 10670 10669 10667 10666 10665 10665 10664 10665 10666 10667 10669 10672 10675 10678 10682 10687 10693 10699 10705 10711 10717 10724 10731 10738 10746 10753 10760 10765 10770 10776 10782 10787 10791 10797 10803 10810 10817 10818 10820 10829 10838 10843 10849 10856 10863 10867 10869 10873 10880 10886 10886 10890 10897 10905 10912 10917 10922 10928 10931 10936 10945 10950 10953 10959 10962 10966 10970 10973 10976 10979 10981 10983 10986 10988 10991 10993 10996 10998 10999 11001 11002
10697 10690 10685 10680 10676 10673 10670 10668 10667 10666 10665 10664 10663 10662 10663 10663 10664 10666 10668 10671 10674 10677 10682 10687 10693 10698 10704 10710 10716 10723 10729 10736 10744 10752 10758 10763 10769 10773 10778 10783 10790 10797 10803 10807 10808 10814 10826 10833 10839 10846 10853 10857 10858 10860 10866 10873 10875 10875 10882 10892 10900 10907 10912 10918 10924 10927 10934 10942 10945 10949 10954 10958 10963 10967 10970 10973 10976 10979 10981 10983 10985 10988 10990 10993 10996 10998 10999 11001
10694 10687 10682 10678 10675 10672 10669 10667 10666 10665 10664 10663 10662 10661 10661 10661 10662 10663 10665 10668 10670 10674 10678 10683 10687 10692 10697 10703 10708 10714 10721 10728 10735 10743 10749 10754 10759 10765 10771 10778 10785 10791 10796 10799 10802 10811 10823 10828 10835 10842 10846 10847 10849 10854 10862 10865 10864 10868 10880 10889 10896 10901 10907 10914 10918 10921 10930 10937 10940 10944 10949 10954 10960 10963 10967 10971 10974 10977 10979 10981 10982 10985 10988 10991 10994 10996 10997 10999
10691 10685 10680 10676 10673 10671 10668 10667 10665 10664 10663 10662 10661 10660 10660 10660 10660 10661 10663 10665 10667 10670 10674 10678 10682 10686 10690 10696 10701 10706 10713 10720 10727 10733 10739 10744 10750 10757 10764 10770 10777 10783 10789 10793 10798 10808 10817 10823 10830 10833 10834 10836 10841 10849 10855 10856 10858 10868 10879 10885 10890 10896 10903 10910 10916 10921 10928 10932 10934 10939 10944 10950 10956 10959 10964 10968 10972 10975 10977 10978 10980 10983 10986 10989 10992 10994 10996 10997
10688 10682 10678 10674 10672 10669 10667 10666 10665 10663 10662 10661 10660 10660 10659 10659 10659 10660 10661 10663 10665 10668 10671 10674 10677 10680 10683 10688 10693 10699 10706 10712 10717 10723 10729 10735 10742 10748 10755 10762 10769 10775 10781 10785 10792 10801 10809 10816 10821 10822 10824 10829 10836 10842 10846 10849 10855 10867 10876 10881 10887 10892 10899 10908 10914 10920 10924 10925 10927 10933 10939 10945 10950 10955 10961 10965 10968 10971 10973 10975 10977 10980 10983 10986 10989 10992 10994 10995
10686 10680 10676 10672 10670 10668 10666 10665 10664 10663 10661 10660 10659 10659 10659 10659 10659 10660 10660 10662 10664 10666 10668 10671 10673 10676 10679 10682 10687 10692 10698 10704 10709 10715 10722 10728 10735 10742 10748 10756 10763 10768 10773 10779 10787 10794 10801 10807 10811 10814 10818 10826 10833 10838 10841 10845 10851 10861 10871 10877 10882 10888 10896 10905 10910 10915 10917 10917 10921 10928 10935 10941 10944 10950 10957 10960 10963 10966 10969 10971 10973 10976 10979 10982 10985 10988 10990 10991
10685 10678 10674 10671 10668 10666 10665 10664 10662 10661 10660 10659 10658 10658 10658 10658 10659 10659 10660 10661 10662 10664 10666 10669 10670 10672 10675 10678 10682 10687 10692 10697 10703 10709 10715 10722 10730 10737 10745 10753 10758 10762 10766 10773 10780 10787 10794 10800 10804 10808 10815 10822 10828 10831 10833 10836 10842 10852 10862 10868 10873 10880 10889 10896 10901 10905 10905 10906 10913 10922 10931 10936 10938 10944 10950 10952 10957 10961 10963 10966 10969 10972 10975 10977 10979 10982 10984 10987
10683 10677 10673 10669 10667 10665 10664 10663 10662 10660 10659 10658 10657 10657 10657 10657 10658 10658 10659 10660 10661 10663 10665 10666 10668 10669 10672 10674 10678 10682 10687 10692 10697 10702 10709 10717 10724 10731 10738 10745 10750 10754 10759 10765 10773 10779 10786 10792 10796 10802 10809 10815 10819 10820 10823 10827 10833 10843 10853 10861 10867 10874 10880 10885 10889 10892 10892 10897 10909 10919 10926 10929 10931 10937 10942 10946 10952 10955 10958 10962 10964 10968 10971 10972 10975 10978 10981 10984
10681 10675 10671 10668 10665 10663 10662 10661 10660 10659 10659 10658 10657 10657 10656 10656 10656 10657 10658 10659 10660 10661 10663 10664 10665 10666 10668 10670 10673 10677 10681 10686 10691 10697 10703 10710 10717 10724 10730 10735 10741 10747 10751 10758 10765 10771 10777 10782 10787 10794 10801 10805 10807 10810 10815 10821 10827 10837 10848 10857 10863 10867 10870 10874 10879 10883 10886 10895 10909 10917 10920 10921 10924 10933 10939 10943 10948 10950 10953 10957 10959 10963 10966 10968 10972 10975 10977 10981
10679 10673 10669 10666 10663 10662 10661 10660 10659 10658 10657 10657 10656 10656 10655 10655 10655 10655 10656 10657 10658 10659 10660 10661 10662 10663 10664 10666 10669 10673 10676 10680 10686 10691 10696 10703 10710 10717 10721 10726 10733 10739 10744 10751 10757 10763 10769 10773 10779 10786 10790 10793 10796 10802 10808 10813 10820 10831 10842 10850 10855 10858 10862 10867 10872 10876 10882 10893 10905 10911 10913 10914 10920 10930 10935 10938 10942 10945 10948 10952 10955 10959 10961 10964 10968 10970 10973 10977
10677 10671 10667 10663 10661 10659 10658 10657 10657 10656 10656 10655 10655 10655 10654 10654 10654 10654 10654 10654 10655 10656 10657 10657 10658 10659 10661 10663 10665 10668 10671 10675 10680 10685 10690 10696 10702 10708 10712 10718 10724 10730 10736 10743 10749 10756 10761 10765 10771 10776 10779 10783 10788 10795 10800 10805 10814 10824 10831 10839 10845 10850 10856 10862 10866 10872 10878 10887 10897 10903 10907 10910 10916 10924 10928 10931 10936 10940 10944 10948 10951 10953 10955 10959 10963 10965 10969 10973
10674 10669 10664 10661 10658 10656 10655 10654 10654 10654 10653 10653 10652 10652 10652 10652 10652 10652 10652 10652 10652 10652 10653 10653 10654 10655 10657 10659 10661 10663 10666 10670 10675 10679 10684 10689 10694 10699 10704 10709 10714 10720 10727 10734 10741 10748 10753 10758 10764 10767 10770 10776 10781 10786 10792 10798 10806 10814 10821 10830 10837 10842 10848 10853 10859 10866 10872 10878 10887 10894 10900 10905 10910 10917 10921 10926 10931 10935 10940 10944 10945 10946 10949 10954 10958 10961 10964 10968
10671 10666 10662 10658 10656 10654 10652 10651 10651 10651 10651 10650 10650 10650 10650 10649 10649 10649 10648 10648 10649 10649 10648 10648 10649 10650 10652 10654 10655 10657 10661 10665 10668 10672 10677 10682 10686 10690 10695 10700 10706 10711 10718 10725 10733 10739 10745 10751 10756 10758 10762 10768 10772 10777 10784 10792 10798 10803 10811 10820 10826 10833 10840 10847 10855 10862 10866 10872 10879 10886 10894 10900 10903 10908 10914 10919 10924 10929 10933 10936 10938 10940 10943 10948 10953 10956 10959 10963
10668 10663 10659 10656 10653 10651 10650 10649 10648 10648 10648 10648 10648 10647 10646 10646 10646 10645 10644 10644 10645 10645 10644 10643 10643 10644 10646 10648 10649 10651 10654 10658 10661 10665 10669 10674 10678 10682 10687 10693 10698 10704 10710 10716 10723 10730 10735 10742 10747 10750 10754 10759 10764 10770 10778 10784 10789 10794 10802 10810 10816 10824 10834 10841 10850 10858 10862 10867 10873 10880 10888 10892 10894 10900 10907 10912 10916 10921 10924 10928 10930 10933 10938 10943 10948 10951 10955 10959
10666 10660 10656 10653 10650 10648 10647 10645 10645 10645 10645 10645 10645 10644 10643 10642 10642 10641 10640 10639 10640 10640 10640 10638 10637 10637 10638 10640 10642 10644 10647 10651 10654 10657 10662 10667 10671 10676 10681 10687 10692 10698 10703 10709 10714 10720 10727 10733 10738 10742 10746 10751 10758 10764 10770 10775 10779 10785 10793 10801 10809 10819 10827 10834 10844 10852 10857 10861 10866 10873 10879 10883 10888 10895 10901 10904 10908 10912 10916 10920 10923 10927 10933 10938 10943 10947 10950 10954
10664 10658 10653 10650 10647 10646 10644 10642 10642 10642 10642 10642 10642 10641 10640 10639 10638 10636 10636 10635 10634 10634 10633 10632 10630 10629 10630 10632 10634 10636 10640 10644 10647 10651 10655 10660 10665 10670 10676 10681 10686 10691 10696 10701 10706 10712 10718 10724 10728 10732 10737 10743 10750 10755 10761 10767 10772 10779 10786 10794 10804 10815 10822 10829 10838 10845 10849 10854 10859 10864 10871 10877 10883 10888 10892 10896 10901 10905 10909 10914 10917 10921 10927 10932 10937 10941 10944 10948
10661 10655 10651 10647 10645 10643 10641 10640 10639 10639 10639 10639 10638 10637 10636 10635 10633 10632 10631 10630 10628 10627 10626 10625 10623 10622 10622 10624 10626 10628 10632 10636 10640 10644 10648 10653 10658 10663 10668 10672 10677 10682 10688 10693 10697 10703 10709 10714 10718 10723 10728 10734 10739 10745 10752 10759 10765 10772 10780 10789 10800 10809 10816 10823 10829 10836 10842 10849 10853 10858 10865 10871 10875 10879 10884 10889 10894 10898 10902 10906 10910 10914 10919 10924 10929 10934 10938 10941
10657 10653 10648 10645 10643 10641 10639 10638 10637 10637 10637 10636 10635 10634 10633 10632 10630 10628 10627 10626 10623 10621 10619 10618 10616 10615 10615 10617 10618 10621 10624 10628 10632 10637 10642 10647 10651 10656 10659 10663 10667 10672 10678 10683 10688 10694 10698 10703 10708 10714 10719 10725 10731 10738 10745 10752 10760 10768 10776 10785 10793 10801 10807 10813 10819 10828 10836 10843 10848 10852 10857 10862 10866 10872 10877 10882 10887 10891 10893 10896 10901 10906 10911 10916 10922 10926 10931 10935
10653 10649 10645 10642 10641 10639 10636 10635 10634 10634 10634 10633 10632 10630 10629 10628 10626 10625 10623 10621 10619 10616 10614 10612 10611 10610 10609 10610 10611 10613 10616 10620 10624 10629 10635 10640 10645 10648 10651 10655 10659 10664 10669 10674 10679 10684 10688 10692 10699 10704 10710 10717 10723 10730 10740 10748 10756 10763 10769 10777 10784 10791 10797 10804 10811 10820 10827 10834 10840 10845 10848 10852 10858 10863 10868 10874 10879 10882 10885 10889 10894 10900 10905 10909 10914 10919 10924 10929
10650 10645 10641 10639 10638 10636 10633 10631 10631 10631 10631 10630 10629 10628 10626 10625 10623 10622 10620 10617 10615 10613 10610 10608 10606 10605 10604 10604 10605 10607 10609 10613 10616 10621 10627 10633 10637 10640 10644 10648 10652 10657 10661 10665 10670 10675 10679 10684 10690 10694 10700 10708 10715 10723 10733 10740 10746 10753 10760 10767 10774 10780 10788 10795 10803 10810 10816 10824 10832 10836 10839 10843 10847 10852 10858 10864 10870 10874 10878 10883 10889 10894 10899 10903 10907 10912 10918 10923
10647 10642 10638 10635 10634 10633 10630 10628 10629 10629 10627 10626 10626 10625 10624 10622 10620 10619 10617 10614 10612 10609 10607 10605 10603 10601 10600 10600 10601 10602 10603 10606 10609 10614 10620 10625 10629 10633 10637 10641 10645 10649 10654 10658 10662 10667 10670 10675 10681 10685 10692 10700 10709 10718 10725 10730 10736 10743 10750 10757 10764 10771 10779 10786 10793 10800 10807 10815 10821 10824 10827 10830 10834 10841 10849 10856 10861 10867 10872 10877 10883 10889 10893 10896 10899 10904 10910 10916
10645 10640 10635 10632 10631 10630 10628 10626 10626 10626 10625 10623 10623 10622 10622 10620 10618 10617 10615 10612 10609 10606 10603 10601 10600 10598 10596 10596 10597 10598 10599 10601 10603 10607 10613 10618 10622 10626 10630 10634 10637 10641 10646 10651 10655 10660 10663 10668 10673 10679 10685 10693 10702 10711 10718 10722 10728 10736 10742 10748 10755 10762 10769 10776 10783 10790 10798 10805 10810 10813 10817 10821 10825 10833 10841 10848 10853 10859 10864 10869 10874 10879 10883 10887 10891 10896 10902 10908
10641 10637 10633 10630 10628 10627 10625 10624 10623 10623 10622 10621 10621 10620 10619 10618 10617 10615 10614 10611 10608 10605 10601 10598 10597 10596 10594 10593 10593 10594 10595 10597 10599 10602 10606 10611 10615 10619 10623 10627 10630 10634 10639 10644 10649 10654 10657 10661 10668 10674 10680 10687 10693 10702 10709 10714 10720 10728 10735 10741 10748 10754 10760 10767 10773 10781 10789 10795 10800 10804 10809 10814 10819 10826 10834 10839 10845 10850 10855 10858 10862 10867 10872 10877 10882 10889 10894 10899
10636 10633 10629 10626 10625 10624 10622 10621 10620 10620 10620 10619 10618 10617 10616 10615 10614 10613 10612 10610 10607 10604 10600 10597 10595 10593 10592 10591 10590 10591 10592 10593 10594 10597 10600 10604 10608 10612 10616 10620 10624 10628 10633 10639 10644 10649 10652 10656 10662 10668 10674 10680 10686 10693 10700 10704 10710 10719 10727 10733 10739 10744 10750 10757 10764 10771 10780 10786 10791 10797 10804 10808 10813 10818 10823 10829 10834 10840 10843 10846 10850 10855 10861 10867 10874 10880 10886 10890
10633 10629 10626 10623 10621 10620 10619 10618 10617 10617 10617 10616 10616 10615 10614 10613 10612 10611 10610 10608 10605 10603 10600 10597 10594 10591 10590 10589 10588 10588 10589 10589 10591 10592 10594 10598 10601 10605 10609 10613 10617 10622 10628 10633 10638 10643 10647 10651 10656 10662 10668 10673 10678 10685 10693 10697 10701 10707 10715 10722 10728 10734 10740 10748 10755 10762 10771 10777 10784 10791 10795 10798 10803 10809 10814 10819 10825 10829 10832 10835 10838 10844 10851 10858 10866 10872 10878 10882